x

Grand Traverse Light, Mi (gtlm4) Weather Station

1:40pm - Wed 13th Dec 2017 All times are CST. -6 hours from GMT.

  • Wind
    11mph, 22mph gusts
  • Air Temp 17°f
  • Sea Pressure 1001mb
  • Grand Traverse Light, Mi
  • Grand Traverse Light, Mi

More Historic Weather Station data

Upgrade to MSW Pro to gain access to the past 30 days of data for over 8000 Wavebouys and Weather Stations around the globe.

Join

Comparision Forecast

View Surf forecast
   
Wed 12/13 1:40pm 11 22 mph 1001mb 17f
1:30pm 11 21 mph 1001.4mb 17f
1:20pm 9 21 mph 1001.4mb 17f
1:10pm 10 20 mph 1001.4mb 17f
1:00pm 13 21 mph 1001.4mb 17f
12:40pm 9 21 mph 1001.7mb 17f
12:30pm 9 18 mph 1001.7mb 17f
12:20pm 8 20 mph 1001.7mb 17f
12:10pm 13 20 mph 1002mb 17f
12:00pm 10 25 mph 1002mb 17f
11:40am 9 18 mph 1002.7mb 17f
11:30am 8 17 mph 1003mb 17f
11:20am 9 16 mph 1003.4mb 17f
11:10am 8 17 mph 1003.7mb 17f
11:00am 10 18 mph 1004.1mb 17f
10:40am 7 16 mph 1004.4mb 17f
10:30am 7 15 mph 1004.7mb 17f
10:20am 7 15 mph 1005.1mb 17f
10:10am 8 16 mph 1005.4mb 17f
9:40am 9 16 mph 1005.1mb 17f
9:30am 8 17 mph 1005.4mb 17f
9:20am 10 18 mph 1005.1mb 17f
9:10am 8 17 mph 1005.4mb 17f
9:00am 8 18 mph 1005.4mb 17f
8:40am 6 17 mph 1005.8mb 17f
8:30am 7 18 mph 1005.8mb 17f
8:20am 8 16 mph 1005.8mb 17f
8:10am 7 15 mph 1006.1mb 17f
8:00am 5 18 mph 1006.1mb 16f
7:40am 9 18 mph 1006.1mb 17f
7:30am 9 18 mph 1006.1mb 17f
7:20am 10 21 mph 1006.1mb 17f
7:10am 9 18 mph 1006.1mb 17f
7:00am 7 17 mph 1006.4mb 17f
6:40am 6 15 mph 1006.4mb 17f
6:30am 8 16 mph 1006.4mb 17f
6:20am 7 16 mph 1006.8mb 17f
6:10am 7 16 mph 1007.1mb 17f
6:00am 8 16 mph 1006.8mb 17f
5:40am 6 16 mph 1007.1mb 17f
5:30am 7 16 mph 1006.8mb 17f
5:20am 5 14 mph 1006.8mb 17f
5:10am 8 16 mph 1007.1mb 17f
5:00am 6 13 mph 1007.1mb 17f
4:40am 8 15 mph 1007.5mb 17f
4:30am 6 13 mph 1007.5mb 18f
4:20am 7 13 mph 1007.8mb 18f
4:10am 5 10 mph 1007.8mb 18f
4:00am 7 13 mph 1008.1mb 18f
3:40am 2 8 mph 1008.5mb 18f
3:30am 6 10 mph 1008.5mb 18f
3:20am 6 13 mph 1008.8mb 18f
3:10am 5 9 mph 1008.8mb 18f
3:00am 3 7 mph 1009.1mb 18f
2:40am 5 8 mph 1009.5mb 19f
2:30am 6 8 mph 1009.5mb 19f
2:20am 3 10 mph 1009.5mb 20f
2:10am  -  5 mph 1009.8mb 20f
2:00am 5 9 mph 1009.8mb 20f
1:40am 9 14 mph 1009.8mb 21f
1:30am 9 14 mph 1009.5mb 20f
1:20am 3 7 mph 1009.8mb 20f
1:10am 5 9 mph 1009.8mb 20f
1:00am 10 13 mph 1009.8mb 20f
12:40am 8 13 mph 1010.2mb 20f
12:30am 7 13 mph 1010.2mb 20f
12:20am 8 16 mph 1010.5mb 20f
12:10am 9 15 mph 1010.5mb 20f
12:00am 9 13 mph 1010.5mb 19f
Tue 12/12 11:40pm 14 17 mph 1011.2mb 20f
11:30pm 13 18 mph 1011.2mb 20f
11:20pm 7 15 mph 1011.2mb 20f
11:10pm 11 17 mph 1011.2mb 20f
11:00pm 11 17 mph 1011.2mb 19f
10:40pm 11 15 mph 1011.5mb 20f
10:30pm 13 20 mph 1011.9mb 20f
10:20pm 16 18 mph 1011.9mb 20f
10:10pm 14 23 mph 1011.9mb 20f
10:00pm 13 21 mph 1012.2mb 20f
9:40pm 13 17 mph 1012.5mb 20f
9:30pm 11 18 mph 1012.5mb 20f
9:20pm 13 21 mph 1012.5mb 20f
9:10pm 14 17 mph 1012.9mb 20f
9:00pm 16 23 mph 1012.9mb 20f
8:40pm 14 22 mph 1012.9mb 20f
8:30pm 17 20 mph 1013.2mb 20f
8:20pm 17 24 mph 1013.2mb 20f
8:10pm 16 25 mph 1013.2mb 20f
8:00pm 17 26 mph 1013.2mb 21f
7:40pm 20 25 mph 1013.5mb 20f
7:30pm 18 24 mph 1013.9mb 20f
7:20pm 22 29 mph 1013.9mb 21f
7:10pm 22 26 mph 1013.9mb 20f
7:00pm 21 31 mph 1013.9mb 20f
6:58pm 17 31 mph 1013.5mb 20f
6:40pm 14 36 mph 1013.9mb 20f
6:30pm 21 29 mph 1013.9mb 21f
6:20pm 25 30 mph 1013.9mb 20f
6:10pm 18 29 mph 1013.9mb 21f
6:00pm 20 31 mph 1013.9mb 20f
5:40pm 24 32 mph 1013.9mb 21f
5:30pm 24 32 mph 1013.9mb 21f
5:20pm 23 30 mph 1013.9mb 21f
5:10pm 22 32 mph 1013.9mb 20f
5:00pm 24 28 mph 1013.9mb 20f
4:46pm 23 31 mph 1013.9mb 21f
4:40pm 23 30 mph 1013.9mb 20f
4:30pm 21 30 mph 1013.9mb 21f
4:20pm 18 31 mph 1013.9mb 20f
4:10pm 24 32 mph 1013.9mb 21f
4:00pm 21 30 mph 1013.9mb 21f
3:45pm 22 41 mph 1013.5mb 21f
3:40pm 22 29 mph 1013.5mb 21f
3:37pm 21 29 mph 1013.5mb 21f
3:30pm 22 31 mph 1013.5mb 20f
3:20pm 22 33 mph 1013.5mb 20f
3:10pm 25 31 mph 1013.5mb 20f
3:00pm 25 34 mph 1013.5mb 20f
2:50pm 24 32 mph 1013.5mb 20f
2:40pm 23 31 mph 1013.5mb 20f
2:31pm 21 30 mph 1013.5mb 20f
2:30pm 21 28 mph 1013.5mb 20f
2:20pm 22 28 mph 1013.5mb 20f
2:10pm 23 33 mph 1013.5mb 20f
2:00pm 22 31 mph 1013.5mb 20f
1:50pm 22 33 mph 1013.5mb 20f
1:40pm 25 31 mph 1013.5mb 20f
1:30pm 24 33 mph 1013.9mb 20f
1:24pm 23 30 mph 1013.9mb 20f
1:20pm 28 33 mph 1013.9mb 20f
1:10pm 23 31 mph 1013.9mb 20f
1:00pm 23 32 mph 1014.2mb 19f
12:50pm 24 37 mph 1013.9mb 20f
12:40pm 21 34 mph 1014.2mb 19f
12:30pm 21 32 mph 1014.2mb 20f
12:23pm 28 31 mph 1014.2mb 19f
12:20pm 25 32 mph 1014.2mb 19f
12:10pm 29 36 mph 1014.2mb 19f
12:00pm 22 32 mph 1014.2mb 19f
11:50am 28 34 mph 1013.9mb 19f
11:40am 23 31 mph 1014.2mb 19f
11:30am 26 36 mph 1014.2mb 19f
11:22am 22 30 mph 1014.6mb 18f
11:20am 24 36 mph 1014.6mb 18f
11:10am 25 32 mph 1014.6mb 18f
11:00am 26 34 mph 1014.6mb 19f
10:50am 24 39 mph 1014.6mb 19f
10:40am 28 37 mph 1014.6mb 18f
10:30am 28 34 mph 1014.9mb 19f
10:22am 25 33 mph 1014.9mb 19f
10:20am 23 39 mph 1014.9mb 19f
10:10am 29 39 mph 1014.9mb 19f
10:00am 28 38 mph 1014.9mb 19f
9:50am 28 39 mph 1014.9mb 18f
9:40am 31 38 mph 1015.2mb 18f
9:30am 25 40 mph 1015.2mb 18f
9:21am 26 40 mph 1015.2mb 18f
9:20am 26 33 mph 1014.9mb 18f
9:10am 28 37 mph 1014.9mb 19f
9:00am 26 34 mph 1015.2mb 18f
8:50am 31 37 mph 1015.2mb 18f
8:40am 30 39 mph 1014.9mb 18f
8:30am 25 33 mph 1014.9mb 18f
8:27am 25 32 mph 1014.9mb 18f
8:20am 30 40 mph 1014.9mb 18f
8:10am 28 38 mph 1014.6mb 19f
8:00am 31 41 mph 1014.9mb 18f
7:50am 26 41 mph 1014.6mb 19f
7:40am 33 49 mph 1014.6mb 18f
7:30am 31 40 mph 1014.6mb 19f
7:27am 30 40 mph 1014.9mb 18f
7:20am 28 39 mph 1014.6mb 18f
7:10am 31 41 mph 1014.6mb 19f
7:09am 29
mph
1014.9mb 19f
7:00am 30 41 mph 1014.9mb 19f
6:50am 30 39 mph 1014.6mb 19f
6:40am 32 44 mph 1014.2mb 19f
6:30am 31 44 mph 1014.2mb 19f
6:20am 31 44 mph 1014.2mb 19f
6:10am 31 41 mph 1014.2mb 19f
6:08am 28 40 mph 1014.2mb 19f
6:00am 32 40 mph 1014.2mb 19f
5:50am 32 46 mph 1013.9mb 20f
5:40am 32 43 mph 1013.9mb 19f
5:30am 31 45 mph 1013.5mb 20f
5:20am 34 45 mph 1013.5mb 19f
5:10am 36 44 mph 1013.2mb 19f
5:04am 31 40 mph 1013.2mb 20f
5:00am 32 40 mph 1013.2mb 20f
4:50am 33 40 mph 1012.9mb 20f
4:40am 30 45 mph 1012.9mb 20f
4:30am 34 48 mph 1013.2mb 21f
4:20am 32 44 mph 1013.2mb 21f
4:10am 32 43 mph 1013.2mb 21f
4:00am 33 44 mph 1012.9mb 21f
3:56am 32 41 mph 1012.9mb 21f
3:50am 32 45 mph 1012.9mb 21f
3:40am 32 45 mph 1012.9mb 21f
3:30am 33 46 mph 1012.5mb 21f
3:20am 33 43 mph 1012.5mb 22f
3:10am 33 43 mph 1012.5mb 22f
3:00am 32 44 mph 1012.5mb 22f
2:55am 34 41 mph 1012.5mb 22f
2:50am 34 44 mph 1012.5mb 22f
2:40am 37 46 mph 1012.5mb 22f
2:30am 39 46 mph 1012.5mb 22f
2:20am 36 52 mph 1012.2mb 22f
2:10am 39 45 mph 1012.2mb 23f
2:00am 36 47 mph 1012.2mb 23f
1:52am 33 40 mph 1012.2mb 23f
1:50am 34 46 mph 1011.9mb 23f
1:40am 34 46 mph 1011.9mb 23f
1:30am 36 47 mph 1011.5mb 23f
1:20am 36 44 mph 1011.5mb 23f
1:10am 37 46 mph 1011.2mb 24f
1:00am 34 48 mph 1011.2mb 24f
12:51am 33 40 mph 1010.8mb 24f
12:50am 33 44 mph 1011.2mb 24f
12:40am 34 44 mph 1010.8mb 24f
12:30am 33 46 mph 1010.8mb 25f
12:20am 37 45 mph 1010.8mb 25f
12:10am 33 45 mph 1010.8mb 25f
12:00am 38 46 mph 1010.5mb 26f
Mon 12/11 11:50pm 33 43 mph 1010.5mb 26f
11:40pm 33 44 mph 1010.2mb 26f
11:30pm 34 45 mph 1010.2mb 27f
11:20pm 33 41 mph 1009.8mb 27f
11:10pm 37 44 mph 1009.8mb 27f
11:00pm 33 45 mph 1009.5mb 27f
10:50pm 37 46 mph 1009.5mb 27f
10:46pm 31 41 mph 1009.8mb 27f
10:40pm 34 48 mph 1009.5mb 27f
10:30pm 39 49 mph 1009.1mb 27f
10:20pm 37 45 mph 1008.8mb 29f
10:10pm 36 44 mph 1009.1mb 29f
10:00pm 36 45 mph 1008.8mb 28f
9:50pm 36 45 mph 1008.5mb 29f
9:40pm 32 41 mph 1008.1mb 30f
9:30pm 33 44 mph 1008.1mb 30f
9:20pm 32 41 mph 1008.5mb 31f
9:10pm 36 44 mph 1008.1mb 30f
9:00pm 33 43 mph 1008.1mb 31f
8:50pm 33 44 mph 1008.1mb 31f
8:41pm 34 44 mph 1007.8mb 31f
8:40pm 34 43 mph 1007.8mb 31f
8:30pm 33 41 mph 1007.8mb 31f
8:20pm 33 44 mph 1007.8mb 31f
8:10pm 32 38 mph 1007.5mb 31f
8:00pm 34 40 mph 1007.5mb 31f
7:50pm 36 41 mph 1007.1mb 31f
7:40pm 36 40 mph 1007.1mb 31f
7:30pm 31 37 mph 1007.1mb 32f
7:20pm 24 33 mph 1006.8mb 32f
7:10pm 28 33 mph 1006.8mb 31f
7:00pm 26 32 mph 1006.8mb 31f
6:57pm 25 30 mph 1006.8mb 31f
6:50pm 25 31 mph 1006.8mb 32f
6:40pm 23 30 mph 1006.4mb 31f
6:30pm 24 30 mph 1006.4mb 32f
6:20pm 22 28 mph 1006.4mb 32f
6:10pm 23 29 mph 1006.1mb 32f
6:00pm 24 29 mph 1006.4mb 32f
5:56pm 22 29 mph 1006.1mb 31f
5:50pm 17 25 mph 1006.1mb 27f
5:40pm 8 14 mph 1006.1mb 26f
5:30pm 7 14 mph 1006.1mb 26f
5:20pm 7 13 mph 1006.4mb 26f
5:10pm 9 15 mph 1006.4mb 26f
5:00pm 10 14 mph 1006.4mb 26f
4:40pm 8 14 mph 1006.1mb 26f
4:30pm 6 14 mph 1006.4mb 25f
4:20pm 7 14 mph 1006.4mb 25f
4:10pm 5 15 mph 1006.4mb 25f
4:00pm 6 18 mph 1006.8mb 25f
3:50pm 7 15 mph 1006.8mb 25f
3:40pm 7 16 mph 1006.8mb 25f
3:30pm 8 16 mph 1006.8mb 25f
3:20pm 9 18 mph 1006.8mb 25f
3:10pm 8 21 mph 1006.8mb 25f
3:00pm 7 20 mph 1007.1mb 25f
2:50pm 9 18 mph 1007.1mb 25f
2:40pm 7 17 mph 1007.1mb 25f
2:30pm 9 17 mph 1007.1mb 25f
2:20pm 5 17 mph 1007.1mb 25f
2:10pm 8 20 mph 1007.5mb 24f
2:00pm 6 18 mph 1007.8mb 24f
1:50pm 7 18 mph 1007.8mb 25f
1:40pm 8 17 mph 1007.8mb 25f
1:30pm 7 21 mph 1007.8mb 24f
1:20pm 10 22 mph 1008.1mb 24f
1:10pm 9 18 mph 1008.1mb 24f
1:00pm 9 17 mph 1008.8mb 24f
12:50pm 9 17 mph 1008.8mb 24f
12:40pm 7 17 mph 1009.1mb 24f
12:30pm 9 17 mph 1009.5mb 24f
12:20pm 7 16 mph 1009.5mb 24f
12:10pm 7 16 mph 1009.5mb 24f
12:00pm 9 22 mph 1009.5mb 24f
11:50am 9 16 mph 1010.2mb 24f
11:40am 8 18 mph 1010.2mb 24f
11:30am 7 15 mph 1010.5mb 24f
11:20am 7 14 mph 1010.8mb 24f
11:10am 8 16 mph 1011.2mb 23f
11:00am 7 16 mph 1011.9mb 23f
10:50am 7 15 mph 1011.9mb 23f
10:40am 8 15 mph 1011.9mb 23f
10:30am 7 16 mph 1012.2mb 23f
10:20am 7 16 mph 1012.2mb 23f
10:10am 6 16 mph 1012.5mb 23f
10:00am 5 10 mph 1012.9mb 23f
9:50am 6 15 mph 1013.2mb 23f
9:40am 6 13 mph 1013.2mb 24f
9:30am 3 15 mph 1013.2mb 24f
9:20am 7 15 mph 1013.2mb 24f
9:10am 7 14 mph 1013.5mb 24f
9:00am 8 11 mph 1013.5mb 24f
8:50am 6 11 mph 1013.5mb 24f
8:40am 5 10 mph 1013.5mb 24f
8:30am 6 11 mph 1013.5mb 23f
8:20am 5 11 mph 1013.9mb 23f
8:10am 3 10 mph 1013.9mb 23f
8:00am 6 10 mph 1014.2mb 22f
7:50am 6 9 mph 1013.9mb 22f
7:40am 6 10 mph 1014.2mb 22f
7:30am 5 13 mph 1014.2mb 22f
7:20am 5 10 mph 1014.6mb 22f
7:10am 3 9 mph 1014.6mb 22f
7:00am 6 10 mph 1014.6mb 22f
6:50am 6 10 mph 1014.6mb 22f
6:40am 7 9 mph 1014.6mb 22f
6:30am 3 8 mph 1014.6mb 22f
6:20am 3 7 mph 1014.6mb 21f
6:10am 5 6 mph 1014.6mb 21f
6:00am 5 7 mph 1014.6mb 21f
5:50am 1 7 mph 1014.2mb 21f
5:40am 3 7 mph 1014.6mb 21f
5:30am 3 6 mph 1014.9mb 21f
5:20am 2 6 mph 1014.9mb 22f
5:10am 3 7 mph 1014.6mb 22f
5:00am 3 6 mph 1014.9mb 22f
4:50am 2 7 mph 1015.2mb 22f
4:40am 5 8 mph 1015.2mb 22f
4:30am 5 7 mph 1015.6mb 22f
4:20am 5 11 mph 1015.6mb 23f
4:10am 9 11 mph 1015.6mb 23f
4:00am 5 11 mph 1015.6mb 23f
3:50am 9 14 mph 1015.6mb 24f
3:40am 6 10 mph 1015.9mb 23f
3:30am 8 10 mph 1015.6mb 23f
3:20am 2 20 mph 1015.9mb 23f
3:10am 7 11 mph 1016.3mb 23f
3:00am 9 14 mph 1016.3mb 23f
2:50am 10 13 mph 1016.6mb 23f
2:40am 5 13 mph 1016.6mb 23f
2:30am 11 13 mph 1016.6mb 24f
2:20am 11 15 mph 1016.9mb 24f
2:10am 9 17 mph 1017.3mb 23f
2:00am 8 18 mph 1016.9mb 24f
1:50am 13 17 mph 1017.3mb 24f
1:40am 8 16 mph 1017.3mb 23f
1:30am 11 17 mph 1017.3mb 24f
1:20am 11 20 mph 1017.3mb 24f
1:10am 14 18 mph 1016.9mb 23f
1:00am 11 14 mph 1016.6mb 23f
12:50am 8 14 mph 1016.9mb 23f
12:40am 5 14 mph 1016.9mb 23f
12:30am 13 17 mph 1016.9mb 23f
12:20am 10 17 mph 1016.9mb 23f
12:10am 14 18 mph 1016.9mb 24f
12:00am 15 20 mph 1016.6mb 24f
Sun 12/10 11:50pm 13 16 mph 1016.6mb 23f
11:40pm 10 15 mph 1016.6mb 23f
11:30pm 10 16 mph 1016.6mb 24f
11:20pm 8 15 mph 1016.6mb 23f
11:10pm 11 15 mph 1016.6mb 23f
11:00pm 9 16 mph 1016.6mb 23f
10:50pm 13 20 mph 1016.9mb 24f
10:40pm 15 20 mph 1016.9mb 23f
10:30pm 10 23 mph 1017.3mb 24f
10:20pm 8 21 mph 1017.3mb 23f
10:10pm 15 22 mph 1017.3mb 23f
10:00pm 13 18 mph 1017.3mb 23f
9:50pm 10 21 mph 1016.9mb 23f
9:40pm 15 22 mph 1017.3mb 23f
9:30pm 16 21 mph 1017.3mb 23f
9:20pm 16 21 mph 1017.3mb 23f
9:10pm 14 23 mph 1017.3mb 23f
9:00pm 16 20 mph 1017.3mb 23f
8:50pm 18 23 mph 1017.3mb 23f
8:40pm 15 21 mph 1017.3mb 23f
8:30pm 16 24 mph 1017.3mb 23f
8:20pm 14 24 mph 1016.9mb 23f
8:10pm 21 26 mph 1017.3mb 23f
8:00pm 18 24 mph 1017.3mb 23f
7:50pm 18 25 mph 1017.3mb 24f
7:40pm 21 30 mph 1017.3mb 23f
7:30pm 23 30 mph 1017.3mb 23f
7:20pm 24 30 mph 1017.3mb 23f
7:10pm 22 30 mph 1016.9mb 23f
7:00pm 24 30 mph 1016.9mb 23f
6:50pm 20 32 mph 1016.6mb 23f
6:40pm 23 31 mph 1016.6mb 23f
6:30pm 24 29 mph 1016.6mb 23f
6:20pm 24 31 mph 1016.6mb 24f
6:19pm 23 29 mph 1016.6mb 24f
6:10pm 26 32 mph 1016.3mb 23f
5:40pm 26 36 mph 1015.9mb 25f
5:30pm 25 31 mph 1015.6mb 25f
5:20pm 23 29 mph 1015.2mb 25f
5:13pm 23 29 mph 1015.2mb 25f
5:10pm 22 30 mph 1015.2mb 25f
5:00pm 24 33 mph 1015.2mb 26f
4:50pm 24 31 mph 1014.6mb 26f
4:40pm 21 32 mph 1014.2mb 26f
4:30pm 22 26 mph 1013.9mb 26f
4:20pm 23 28 mph 1013.9mb 26f
4:10pm 24 32 mph 1013.5mb 26f
4:07pm 22 30 mph 1013.5mb 26f
4:00pm 23 29 mph 1013.2mb 26f
3:50pm 22 29 mph 1013.2mb 26f
3:40pm 22 30 mph 1012.9mb 27f
3:30pm 25 30 mph 1012.9mb 27f
3:20pm 24 30 mph 1012.9mb 27f
3:10pm 24 33 mph 1012.5mb 27f
3:00pm 28 34 mph 1012.2mb 27f
2:51pm 24 30 mph 1011.9mb 28f
2:50pm 24 29 mph 1011.9mb 28f
2:40pm 22 24 mph 1011.9mb 28f
2:30pm 21 25 mph 1011.5mb 28f
2:20pm 22 30 mph 1011.5mb 28f
2:10pm 24 32 mph 1011.2mb 28f
2:00pm 23 29 mph 1011.2mb 29f
1:50pm 23 30 mph 1010.8mb 29f
1:40pm 22 29 mph 1010.8mb 29f
1:37pm 21 29 mph 1010.8mb 29f
1:30pm 22 26 mph 1010.8mb 28f
1:20pm 22 26 mph 1010.5mb 30f
1:10pm 23 28 mph 1010.2mb 30f
1:00pm 23 29 mph 1010.2mb 29f
12:50pm 20 28 mph 1010.2mb 30f
12:40pm 20 25 mph 1010.2mb 30f
12:30pm 18 22 mph 1010.2mb 30f
12:20pm 17 24 mph 1009.8mb 30f
12:10pm 17 24 mph 1009.8mb 29f
12:00pm 18 24 mph 1009.8mb 29f
10:40am 20 25 mph 1009.8mb 29f
10:30am 22 25 mph 1009.8mb 29f
10:20am 20 25 mph 1010.2mb 29f
10:10am 21 23 mph 1010.2mb 29f
10:00am 18 22 mph 1010.2mb 29f
9:50am 17 21 mph 1010.2mb 29f
9:40am 16 20 mph 1009.8mb 29f
9:30am 16 21 mph 1010.2mb 29f
9:20am 20 22 mph 1010.2mb 28f
9:10am 18 23 mph 1010.2mb 28f
9:00am 18 22 mph 1010.2mb 28f
8:50am 20 23 mph 1009.8mb 28f
8:40am 18 23 mph 1009.8mb 28f
8:30am 18 25 mph 1009.8mb 28f
8:20am 18 25 mph 1009.8mb 28f
8:10am 17 24 mph 1009.8mb 28f
8:00am 17 23 mph 1009.8mb 28f
7:50am 21 25 mph 1009.8mb 28f
7:40am 18 24 mph 1009.8mb 28f
7:30am 22 25 mph 1009.8mb 28f
7:20am 18 26 mph 1009.8mb 28f
7:10am 22 28 mph 1009.8mb 28f
7:00am 22 26 mph 1009.8mb 28f
6:50am 20 29 mph 1009.8mb 28f
6:40am 24 29 mph 1009.8mb 28f
6:30am 25 29 mph 1009.8mb 28f
6:20am 26 30 mph 1009.8mb 28f
6:10am 25 30 mph 1009.8mb 28f
6:00am 25 29 mph 1009.8mb 28f
5:50am 24 29 mph 1009.8mb 27f
5:40am 22 28 mph 1009.8mb 27f
5:30am 26 30 mph 1009.8mb 27f
5:20am 23 30 mph 1009.8mb 27f
5:10am 22 29 mph 1009.8mb 27f
5:00am 24 31 mph 1009.8mb 27f
4:50am 25 31 mph 1010.2mb 27f
4:40am 28 31 mph 1010.2mb 26f
4:37am 25 30 mph 1010.2mb 26f
4:30am 24 32 mph 1010.2mb 26f
4:20am 23 30 mph 1010.2mb 26f
4:10am 24 28 mph 1010.2mb 26f
4:00am 23 30 mph 1010.2mb 27f
3:50am 24 29 mph 1010.5mb 26f
3:40am 23 29 mph 1010.5mb 26f
3:33am 23 29 mph 1010.5mb 26f
3:30am 24 29 mph 1010.5mb 26f
3:20am 23 29 mph 1010.5mb 26f
3:10am 26 29 mph 1010.5mb 26f
3:00am 24 31 mph 1010.8mb 26f
2:50am 24 29 mph 1010.8mb 26f
2:40am 25 32 mph 1010.8mb 26f
2:30am 23 29 mph 1011.2mb 26f
2:20am 24 31 mph 1011.2mb 26f
2:14am 23 29 mph 1010.8mb 26f
2:10am 24 29 mph 1011.2mb 26f
2:00am 23 26 mph 1011.2mb 26f
1:50am 24 29 mph 1011.2mb 26f
1:40am 22 31 mph 1011.5mb 26f
1:30am 22 29 mph 1011.2mb 26f
1:20am 22 29 mph 1011.5mb 26f
1:10am 23 26 mph 1011.5mb 26f
1:00am 22 30 mph 1011.5mb 26f
12:50am 23 29 mph 1011.9mb 26f
12:47am 24 29 mph 1011.9mb 26f
12:40am 20 28 mph 1011.9mb 26f
12:30am 21 25 mph 1011.9mb 26f
12:20am 22 26 mph 1011.9mb 26f
12:10am 17 23 mph 1011.9mb 26f
12:00am 17 23 mph 1012.2mb 26f
Sat 12/09 11:50pm 16 24 mph 1012.5mb 25f
11:40pm 20 29 mph 1012.5mb 26f
11:30pm 18 24 mph 1012.5mb 25f
11:20pm 16 22 mph 1012.9mb 26f
11:10pm 17 25 mph 1012.9mb 25f
11:00pm 16 20 mph 1013.2mb 25f
10:50pm 15 21 mph 1013.2mb 25f
10:40pm 14 20 mph 1013.2mb 25f
10:30pm 13 22 mph 1013.5mb 25f
10:20pm 16 23 mph 1013.5mb 25f
10:10pm 14 21 mph 1013.5mb 25f
10:00pm 16 21 mph 1013.5mb 25f
9:50pm 15 23 mph 1013.9mb 25f
9:40pm 16 23 mph 1013.5mb 26f
9:30pm 18 24 mph 1013.5mb 26f
9:20pm 14 22 mph 1013.5mb 25f